Location: Newark
(45.9456°N, 15.4064°E)
Time: 22:35:20
(UTC+00:00)

A-11 Canister half - Visible Passes

Search period start: 22 January 2020 00:00
Search period end: 01 February 2020 00:00
Orbit: 1525 x 1684 km, 47.3° (Epoch: 22 January)

Date Brightness Start Highest point End Pass type
(mag) Time Alt. Az. Time Alt. Az. Time Alt. Az.
22 Jan 9.1 17:22:05 10° SW 17:31:14 61° SSE 17:37:04 26° ENE visible
22 Jan 9.0 19:26:37 10° W 19:35:23 78° WNW 19:35:23 78° WNW visible
22 Jan 10.9 21:31:52 10° WNW 21:33:41 18° WNW 21:33:41 18° WNW visible
23 Jan 9.2 17:00:32 10° SW 17:09:38 59° SSE 17:16:44 19° ENE visible
23 Jan 8.8 19:04:58 10° W 19:14:29 86° N 19:15:03 81° NE visible
23 Jan 10.6 21:10:14 10° WNW 21:13:21 24° WNW 21:13:21 24° WNW visible
24 Jan 9.3 16:38:59 10° SW 16:48:02 57° SSE 16:56:23 13° ENE visible
24 Jan 8.9 18:43:21 10° W 18:52:49 86° NNW 18:54:41 64° ENE visible
24 Jan 10.2 20:48:36 10° WNW 20:52:59 32° WNW 20:52:59 32° WNW visible
25 Jan 9.3 16:17:28 10° SW 16:26:26 55° SE 16:35:39 10° ENE visible
25 Jan 8.9 18:21:43 10° WSW 18:31:10 87° NNW 18:34:18 50° ENE visible
25 Jan 9.8 20:26:58 10° WNW 20:32:36 42° WNW 20:32:36 42° WNW visible
26 Jan 8.9 18:00:05 10° WSW 18:09:31 88° NNW 18:13:55 38° ENE visible
26 Jan 9.4 20:05:20 10° W 20:12:13 55° WNW 20:12:13 55° WNW visible
26 Jan 11.2 22:10:25 10° WNW 22:10:31 10° WNW 22:10:31 10° WNW visible
27 Jan 9.0 17:38:27 10° WSW 17:47:52 89° NNW 17:53:32 29° ENE visible
27 Jan 9.1 19:43:42 10° W 19:51:49 70° WNW 19:51:49 70° WNW visible
27 Jan 11.0 21:48:46 10° WNW 21:50:07 15° WNW 21:50:07 15° WNW visible
28 Jan 9.0 17:16:50 10° WSW 17:26:13 90° SSE 17:33:08 22° ENE visible
28 Jan 8.9 19:22:03 10° W 19:31:26 86° NNW 19:31:26 86° NNW visible
28 Jan 10.7 21:27:08 10° WNW 21:29:44 21° WNW 21:29:44 21° WNW visible
29 Jan 9.0 16:55:12 10° WSW 17:04:35 89° SSE 17:12:44 16° ENE visible
29 Jan 8.8 19:00:25 10° W 19:09:55 86° N 19:11:02 74° E visible
29 Jan 10.4 21:05:30 10° WNW 21:09:21 28° W 21:09:21 28° W visible
30 Jan 9.1 16:33:35 10° WSW 16:42:56 87° SSE 16:52:21 11° ENE visible
30 Jan 8.9 18:38:47 10° W 18:48:16 85° N 18:50:39 58° E visible
30 Jan 10.1 20:43:51 10° WNW 20:48:58 36° W 20:48:58 36° W visible
31 Jan 8.9 18:17:09 10° W 18:26:36 84° N 18:30:17 44° E visible
31 Jan 9.7 20:22:14 10° WNW 20:28:36 46° W 20:28:36 46° W visible
